This is the latest recevied weather packets stored in our database for station/object KE8URB. If no packets are shown the sender has not sent any weather packets the latest 10 day(s).
| Time | Temp. | Humidity | Pressure | Rain* | Wind** | Luminosity | Snow |
|---|---|---|---|---|---|---|---|
| 1787752330 | 20.56° C | 83% | 1018.3 hPa | 0 mm | - | 38 W/m² | - |
| 1787752028 | 20.56° C | 84% | 1018.3 hPa | 0 mm | - | 52 W/m² | - |
| 1787751724 | 20.56° C | 83% | 1018.4 hPa | 0 mm | - | 52 W/m² | - |
| 1787751419 | 20.56° C | 83% | 1018.5 hPa | 0 mm | - | 54 W/m² | - |
| 1787751114 | 20° C | 83% | 1018.4 hPa | 0 mm | - | 49 W/m² | - |
| 1787750810 | 20° C | 85% | 1018.6 hPa | 0 mm | - | 73 W/m² | - |
| 1787750510 | 20° C | 85% | 1018.4 hPa | 0 mm | - | 49 W/m² | - |
| 1787750204 | 19.44° C | 85% | 1018.5 hPa | 0 mm | - | 42 W/m² | - |
| 1787749900 | 18.89° C | 86% | 1018.5 hPa | 0 mm | - | 42 W/m² | - |
| 1787749596 | 18.33° C | 90% | 1018.7 hPa | 0 mm | - | 39 W/m² | - |
| 1787749292 | 18.33° C | 96% | 1018.6 hPa | 0 mm | - | 39 W/m² | - |
| 1787748992 | 17.78° C | 99% | 1018.6 hPa | 0 mm | - | 44 W/m² | - |
| 1787748686 | 17.78° C | 99% | 1018.7 hPa | 0 mm | - | 49 W/m² | - |
| 1787748382 | 17.22° C | 99% | 1018.9 hPa | 0 mm | - | 46 W/m² | - |
| 1787748078 | 16.67° C | 99% | 1018.8 hPa | 0 mm | - | 48 W/m² | - |
| 1787747777 | 16.67° C | 99% | 1019 hPa | 0 mm | - | 47 W/m² | - |
| 1787747473 | 16.67° C | 99% | 1018.9 hPa | 0 mm | - | 47 W/m² | - |
| 1787747173 | 16.11° C | 99% | 1019.1 hPa | 0 mm | - | 39 W/m² | - |
| 1787746870 | 15.56° C | 99% | 1019.1 hPa | 0 mm | - | 35 W/m² | - |
| 1787746569 | 15.56° C | 99% | 1019 hPa | 0 mm | - | 29 W/m² | - |
| 1787746263 | 15.56° C | 99% | 1018.9 hPa | 0 mm | - | 23 W/m² | - |
| 1787745962 | 15.56° C | 99% | 1018.9 hPa | 0 mm | - | 20 W/m² | - |
| 1787745662 | 15.56° C | 99% | 1018.9 hPa | 0 mm | - | 19 W/m² | - |
| 1787745356 | 15° C | 99% | 1018.9 hPa | 0 mm | - | 19 W/m² | - |
| 1787745055 | 15° C | 99% | 1018.9 hPa | 0 mm | - | 19 W/m² | - |
* Rain latest hour (hover to see other rain measurements)
** Current wind speed in m/s (hover to see current wind gust speed)